Date,TemperatureHighF,TemperatureAvgF,TemperatureLowF,DewpointHighF,DewpointAvgF,DewpointLowF,HumidityHigh,HumidityAvg,HumidityLow,PressureMaxIn,PressureMinIn,WindSpeedMaxMPH,WindSpeedAvgMPH,GustSpeedMaxMPH,PrecipitationSumIn
2013-1-1,40.2,37.7,32.0,31.3,29.7,25.5,80,73,66,30.04,29.92,4,1,7,0.04
2013-1-2,34.5,28.6,22.8,25.5,18.1,13.6,80,65,48,30.25,30.01,3,1,7,0.00
2013-1-3,36.9,26.0,13.9,22.4,18.0,11.5,92,72,51,30.27,30.15,4,1,6,0.00
2013-1-4,40.0,33.9,31.4,24.5,22.7,21.5,69,63,52,30.21,30.10,7,3,12,0.00
2013-1-5,41.4,33.8,27.4,26.8,23.2,20.3,83,66,51,30.39,30.16,5,2,12,0.00
2013-1-6,45.4,37.7,27.1,30.9,28.3,23.9,91,70,52,30.19,30.03,6,2,7,0.00
2013-1-7,41.5,35.7,22.1,30.9,26.8,20.1,92,70,56,30.44,30.16,3,1,7,0.00
2013-1-8,50.3,31.1,20.3,34.1,25.8,18.3,96,82,50,30.42,30.36,4,0,7,0.00
2013-1-9,47.7,34.3,21.9,40.5,30.0,20.1,96,85,66,30.40,30.23,4,1,6,0.00
2013-1-10,50.1,41.2,33.6,32.3,30.1,26.6,81,65,49,30.62,30.40,4,1,5,0.00
2013-1-11,44.4,39.9,33.9,40.6,34.9,29.1,96,83,68,30.49,30.11,4,1,9,0.27
2013-1-12,57.3,44.3,38.8,50.0,42.3,37.8,98,93,76,30.19,30.10,2,0,3,0.00
2013-1-13,57.6,48.6,39.5,53.4,46.8,38.6,98,94,83,30.10,29.94,3,1,6,0.00
2013-1-14,51.4,47.4,38.0,50.8,42.0,32.8,98,82,61,30.32,29.94,4,1,8,0.23
2013-1-15,39.9,37.0,32.5,36.7,34.2,30.8,96,90,78,30.36,30.17,2,0,3,0.46
2013-1-16,37.6,35.0,32.5,36.8,34.1,31.2,97,97,95,30.17,29.88,3,0,7,0.48
2013-1-17,41.8,37.8,33.6,38.0,30.9,27.2,97,77,60,30.15,29.99,4,1,7,0.00
2013-1-18,35.4,31.0,26.1,29.1,17.6,11.6,83,58,41,30.51,30.06,5,2,12,0.00
2013-1-19,56.9,41.6,29.8,30.6,26.6,21.3,76,57,33,30.37,29.91,6,3,15,0.00
2013-1-20,53.5,41.9,27.6,32.5,21.8,12.6,64,46,23,30.09,29.81,11,3,18,0.00
2013-1-21,39.7,29.9,23.4,22.6,17.5,7.8,74,60,44,30.11,29.84,6,2,9,0.00
2013-1-22,23.3,16.4,11.3,8.7,-0.2,-3.8,62,48,35,30.31,30.00,6,3,15,0.00
2013-1-23,24.1,16.4,9.6,7.1,1.4,-0.9,70,52,34,30.37,30.16,6,2,9,0.00
2013-1-24,26.1,18.7,13.6,12.4,7.7,1.0,87,64,41,30.54,30.12,5,2,11,0.00
2013-1-25,20.4,17.2,13.0,16.8,9.7,1.8,92,73,51,30.54,30.09,4,1,7,0.00
2013-1-26,30.1,23.1,16.7,23.6,19.3,13.8,92,85,71,30.45,30.10,2,0,4,0.10
2013-1-27,34.5,26.7,14.9,23.1,18.6,11.4,91,72,51,30.61,30.45,4,1,4,0.02
2013-1-28,39.7,34.2,28.4,38.7,31.5,23.5,96,90,73,30.47,30.05,3,1,6,0.24
2013-1-29,67.9,53.2,37.4,56.5,47.9,36.2,98,84,65,30.12,29.93,4,1,9,0.00
2013-1-30,68.8,56.0,41.1,61.6,53.2,38.6,100,90,75,29.93,29.22,8,2,21,1.36
2013-1-31,54.8,38.0,27.9,54.5,26.0,11.2,100,63,44,29.90,29.18,11,6,19,0.38